Weather past 2 weeks in Mamoutzou, Mayotte

Now
79 °F

Partly sunny.


Feels Like: 82 °F
Forecast: 80 / 82 °F
Wind: 13 mph from Northwest

Location: Dzaoudzi / Pamanzi Mayotte

Current Time: Mar 4, 2015 at 12:00:19 PM

Latest Report: Mar 4, 2015 at 11:34 AM


Visibility: N/A

Pressure: 29.80 "Hg

Humidity: 84%

Dew point: 73 °F

Location of MamoutzouLocation

Historic Weather in Mamoutzou — Graph

°F

Mamoutzou temperature yesterday

Maximum temperature yesterday: 86 °F (at 9:30 AM)
Minimum temperature yesterday: 75 °F (at 12:30 AM)
Average temperature yesterday: 82 °F

Past Weeks' High & Low Weather Summary

 TemperatureHumidityPressure
High90 °F (Feb 20, 10:30 AM)100% (Mar 2, 4:00 PM)29.95 "Hg (Mar 2, 4:00 PM)
Low73 °F (Mar 2, 3:00 PM)62% (Mar 1, 1:30 PM)29.68 "Hg (Mar 1, 2:30 PM)
Average82 °F83%29.81 "Hg
* Reported Feb 17 11:00 AM — Mar 4 11:00 AM, Mamoutzou, Weather by CustomWeather, © 2015

Note: Actual official high and low records may vary slightly from our data, if they occured in-between our weather recording intervals... More about our weather records

Advertising

Mamoutzou weather history for previous 24 hours

 ConditionsComfort  
Time TempWeatherWind HumidityBarometerVisibility
11:00 AM
Wed, Mar 4
79 °FPartly sunny.20 mph89%29.83 "HgN/A
10:30 AM79 °FSprinkles. Partly sunny.8 mph89%29.83 "HgN/A
10:00 AM79 °FSprinkles. Partly sunny.16 mph89%29.83 "HgN/A
9:30 AM79 °FSprinkles. Broken clouds.22 mph89%29.83 "HgN/A
9:00 AM82 °FBroken clouds.17 mph74%29.83 "HgN/A
8:30 AM82 °FScattered showers. Broken clouds.22 mph79%29.83 "Hg5 mi
8:00 AM82 °FBroken clouds.12 mph84%29.83 "HgN/A
7:30 AM82 °FPartly sunny.13 mph79%29.83 "HgN/A
7:00 AM82 °FPartly sunny.15 mph79%29.80 "HgN/A
6:34 AM82 °FBroken clouds.17 mph79%29.80 "HgN/A
6:00 AM82 °FPassing clouds.10 mph79%29.77 "HgN/A
5:30 AM82 °FPassing clouds.9 mph79%29.77 "HgN/A
5:00 AM82 °FPassing clouds.9 mph79%29.77 "HgN/A
4:30 AM82 °FPartly cloudy.9 mph79%29.77 "HgN/A
4:00 AM82 °FPassing clouds.12 mph79%29.77 "HgN/A
3:30 AM82 °FPartly cloudy.12 mph84%29.77 "HgN/A
3:00 AM82 °FPassing clouds.9 mph79%29.77 "HgN/A
2:30 AM82 °FPassing clouds.9 mph79%29.77 "HgN/A
2:00 AM81 °FWarm.9 mph84%29.77 "HgN/A
1:30 AM82 °FPassing clouds.12 mph79%29.80 "HgN/A
1:00 AM82 °FPassing clouds.10 mph84%29.80 "HgN/A
12:30 AM81 °FPassing clouds.10 mph84%29.83 "HgN/A
12:00 AM81 °FPassing clouds.12 mph84%29.83 "HgN/A
11:30 PM
Tue, Mar 3
81 °FPassing clouds.9 mph89%29.83 "HgN/A
10:30 PM82 °FOvercast.9 mph79%29.86 "HgN/A
10:00 PM82 °FPassing clouds.7 mph79%29.86 "HgN/A
9:30 PM82 °FPassing clouds.8 mph79%29.86 "HgN/A
9:00 PM81 °FPassing clouds.9 mph84%29.86 "HgN/A
8:30 PM79 °FWarm.3 mph84%29.83 "HgN/A
8:00 PM79 °FWarm.2 mph84%29.83 "HgN/A
7:30 PM79 °FWarm.2 mph84%29.83 "HgN/A
7:00 PM81 °FWarm.3 mph79%29.83 "HgN/A
6:30 PM81 °FWarm.8 mph79%29.80 "HgN/A
6:00 PM82 °FPartly sunny.8 mph74%29.80 "HgN/A
5:30 PM82 °FBroken clouds.7 mph74%29.77 "HgN/A
4:30 PM82 °FBroken clouds.12 mph74%29.77 "HgN/A
4:00 PM82 °FBroken clouds.9 mph74%29.77 "HgN/A
3:30 PM82 °FBroken clouds.15 mph79%29.77 "HgN/A
3:00 PM82 °FBroken clouds.12 mph79%29.80 "HgN/A
2:30 PM82 °FBroken clouds.12 mph79%29.77 "HgN/A
2:00 PM84 °FPartly sunny.13 mph74%29.80 "HgN/A
1:30 PM84 °FBroken clouds.9 mph74%29.80 "HgN/A
1:00 PM84 °FBroken clouds.10 mph74%29.80 "HgN/A
12:30 PM86 °FScattered clouds.17 mph70%29.80 "HgN/A
12:00 PM86 °FScattered clouds.16 mph70%29.83 "HgN/A
Weather by CustomWeather, © 2015

See weather overviewHow to use our weather pages